Date String (YYYY-MM-DD hh:mm:ss) UTC,Instrument flags,Ambient pressure (hPa),Sample flow (lpm),Bypass flow (lpm),Sample temperature (°C),Ambient temperature (°C),ASC tube jacket temperature (°C),LED temperature (°C),Box temperature (°C),Sample RH (%),Span deviation,Mass concentration (μg/m³),Mass concentration (μg/m³),Mass concentration (μg/m³)
DateTimeUTC,F1_M11,P_M11,Q1_M11,Q2_M11,T1_M11,T2_M11,T3_M11,T4_M11,T5_M11,U1_M11,ZSPAN_M11,X2_M11,X0_M11,X1_M11
2022-10-12 19:00:00,,0827.9,5.00,0.00,30.3,28.5,00.0,39.2,32.1,14.6,0001.2,0008.80,0026.83,0006.95
2022-10-12 19:01:00,,0827.9,5.01,0.00,30.3,28.7,00.0,39.2,32.1,14.5,0001.2,0008.90,0026.84,0006.95
2022-10-12 19:02:00,,0827.8,5.01,0.00,30.3,28.8,00.0,39.2,32.2,14.3,0001.0,0008.94,0026.03,0006.95
2022-10-12 19:03:00,,0827.9,5.01,0.00,30.3,28.8,00.0,39.2,32.2,14.3,0000.9,0008.94,0025.75,0006.92
2022-10-12 19:04:00,,0828.0,5.00,0.00,30.3,28.9,00.0,39.2,32.2,14.5,0000.9,0008.91,0024.89,0006.88
2022-10-12 19:05:00,,0827.9,5.00,0.00,30.4,29.0,00.0,39.2,32.2,14.5,0001.1,0008.83,0024.33,0006.86
2022-10-12 19:06:00,,0827.8,5.00,0.00,30.4,29.0,00.0,39.2,32.2,14.7,0001.3,0008.83,0025.26,0006.86
2022-10-12 19:07:00,,0827.8,5.00,0.00,30.4,29.1,00.0,39.2,32.3,14.6,0000.7,0008.90,0023.89,0006.88
2022-10-12 19:08:00,,0827.8,5.00,0.00,30.4,29.1,00.0,39.2,32.3,14.7,0000.7,0008.98,0023.54,0006.92
2022-10-12 19:09:00,,0827.8,5.01,0.00,30.4,29.2,00.0,39.2,32.3,14.7,0000.8,0009.01,0024.18,0006.95
2022-10-12 19:10:00,,0827.9,5.00,0.00,30.4,29.2,00.0,39.2,32.3,14.7,0001.0,0009.03,0024.19,0006.96
2022-10-12 19:11:00,,0827.8,4.99,0.00,30.5,29.2,00.0,39.2,32.3,14.5,0001.0,0009.00,0024.20,0006.98
2022-10-12 19:12:00,,0827.8,4.99,0.00,30.5,29.3,00.0,39.2,32.4,14.4,0001.4,0008.92,0024.21,0006.98
2022-10-12 19:13:00,,0827.7,5.00,0.00,30.5,29.3,00.0,39.2,32.4,14.4,0001.6,0008.83,0024.86,0006.98
2022-10-12 19:14:00,,0827.8,4.99,0.00,30.5,29.3,00.0,39.3,32.4,14.0,0002.0,0008.81,0025.69,0006.99
2022-10-12 19:15:00,,0827.9,5.02,0.00,30.5,29.3,00.0,39.3,32.4,13.9,0002.3,0008.78,0026.75,0007.01
2022-10-12 19:16:00,,0827.9,5.00,0.00,30.5,29.3,00.0,39.3,32.4,13.7,0002.8,0008.84,0026.97,0007.02
2022-10-12 19:17:00,,0827.9,4.99,0.00,30.6,29.3,00.0,39.3,32.5,13.7,0002.6,0008.88,0027.22,0007.04
2022-10-12 19:18:00,,0827.9,5.01,0.00,30.6,29.4,00.0,39.3,32.5,13.6,0003.1,0008.82,0027.45,0007.04
2022-10-12 19:19:00,,0827.9,4.99,0.00,30.6,29.4,00.0,39.3,32.5,13.6,0003.4,0008.74,0027.72,0007.03
2022-10-12 19:20:00,,0827.9,5.01,0.00,30.6,29.4,00.0,39.3,32.5,13.7,0003.4,0008.75,0028.02,0007.01
2022-10-12 19:21:00,,0827.9,5.00,0.00,30.6,29.5,00.0,39.4,32.5,13.7,0003.1,0008.74,0028.00,0006.99
2022-10-12 19:22:00,,0827.9,4.99,0.00,30.7,29.5,00.0,39.4,32.5,13.4,0003.1,0008.74,0027.83,0006.99
2022-10-12 19:23:00,,0827.9,5.00,0.00,30.7,29.5,00.0,39.4,32.6,13.2,0002.8,0008.77,0027.78,0007.00
2022-10-12 19:24:00,,0827.9,4.99,0.00,30.7,29.5,00.0,39.4,32.6,13.0,0002.3,0008.87,0028.17,0007.02
2022-10-12 19:25:00,,0827.9,5.00,0.00,30.7,29.6,00.0,39.4,32.6,13.0,0002.1,0008.88,0028.04,0007.03
2022-10-12 19:26:00,,0828.0,5.01,0.00,30.7,29.6,00.0,39.4,32.6,12.9,0001.6,0008.88,0027.04,0007.04
2022-10-12 19:27:00,,0827.9,5.00,0.00,30.8,29.4,00.0,39.5,32.6,13.0,0000.8,0008.87,0026.11,0007.02
2022-10-12 19:28:00,,0827.9,4.98,0.00,30.8,28.0,00.0,39.4,32.5,13.1,0001.1,0008.88,0025.49,0006.99
2022-10-12 19:29:00,,0827.9,5.01,0.00,30.7,26.7,00.0,39.4,32.3,13.2,0000.8,0008.94,0026.34,0006.96
2022-10-12 19:30:00,,0827.9,5.00,0.00,30.6,26.6,00.0,39.3,32.3,12.9,0000.6,0008.99,0026.79,0006.94
2022-10-12 19:31:00,,0828.0,5.00,0.00,30.5,26.9,00.0,39.3,32.1,13.2,0000.6,0008.96,0026.35,0006.91
2022-10-12 19:32:00,,0828.0,5.00,0.00,30.4,27.2,00.0,39.2,32.0,13.3,0000.7,0008.96,0028.00,0006.90
2022-10-12 19:33:00,,0828.0,5.00,0.00,30.4,27.6,00.0,39.2,32.0,13.1,0000.5,0008.93,0027.36,0006.87
2022-10-12 19:34:00,,0828.0,5.00,0.00,30.3,27.9,00.0,39.2,32.0,13.1,0000.7,0008.93,0027.03,0006.85
2022-10-12 19:35:00,,0827.9,5.01,0.00,30.3,28.2,00.0,39.2,32.0,13.2,0001.2,0008.86,0026.57,0006.79
2022-10-12 19:36:00,,0827.9,5.00,0.00,30.3,28.4,00.0,39.1,32.1,13.4,0001.1,0008.80,0026.67,0006.74
2022-10-12 19:37:00,,0827.9,5.00,0.00,30.3,28.5,00.0,39.1,32.1,13.3,0001.3,0008.73,0027.24,0006.65
2022-10-12 19:38:00,,0827.8,5.00,0.00,30.3,28.7,00.0,39.1,32.1,13.2,0001.4,0008.70,0027.37,0006.58
2022-10-12 19:39:00,,0827.9,5.00,0.00,30.3,28.8,00.0,39.1,32.1,13.0,0001.2,0008.59,0027.44,0006.51
2022-10-12 19:40:00,,0827.9,5.00,0.00,30.3,28.9,00.0,39.1,32.1,13.2,0001.2,0008.43,0026.58,0006.45
2022-10-12 19:41:00,,0827.9,5.00,0.00,30.3,29.0,00.0,39.1,32.2,12.9,0000.9,0008.27,0025.11,0006.36
2022-10-12 19:42:00,,0828.0,5.00,0.00,30.3,29.0,00.0,39.1,32.2,13.1,0000.8,0008.22,0025.05,0006.30
2022-10-12 19:43:00,,0827.9,5.00,0.00,30.4,29.1,00.0,39.1,32.2,13.1,0000.6,0008.13,0023.67,0006.24
2022-10-12 19:44:00,,0828.0,4.99,0.00,30.4,29.1,00.0,39.1,32.3,12.9,0000.8,0008.06,0022.37,0006.19
2022-10-12 19:45:00,,0828.0,5.00,0.00,30.4,29.2,00.0,39.2,32.3,12.8,0001.1,0007.99,0022.31,0006.14
2022-10-12 19:46:00,,0828.0,5.00,0.00,30.4,29.2,00.0,39.2,32.3,12.7,0001.0,0007.96,0022.67,0006.10
2022-10-12 19:47:00,,0828.1,5.00,0.00,30.4,29.3,00.0,39.2,32.3,12.7,0001.1,0007.96,0022.51,0006.09
2022-10-12 19:48:00,,0828.1,5.00,0.00,30.5,29.3,00.0,39.2,32.3,12.7,0001.0,0008.07,0022.60,0006.12
2022-10-12 19:49:00,,0828.2,5.01,0.00,30.5,29.3,00.0,39.2,32.4,12.7,0001.0,0008.06,0023.94,0006.12
2022-10-12 19:50:00,,0828.1,5.01,0.00,30.5,29.4,00.0,39.2,32.4,12.6,0001.0,0008.03,0024.58,0006.11
2022-10-12 19:51:00,,0828.1,5.00,0.00,30.5,29.4,00.0,39.3,32.4,12.5,0001.0,0008.09,0024.82,0006.12
2022-10-12 19:52:00,,0828.2,5.00,0.00,30.6,29.4,00.0,39.3,32.5,12.2,0001.6,0008.21,0025.60,0006.13
2022-10-12 19:53:00,,0828.2,5.00,0.00,30.6,29.5,00.0,39.3,32.5,12.2,0002.0,0008.21,0026.14,0006.15
2022-10-12 19:54:00,,0828.2,4.99,0.00,30.6,29.5,00.0,39.3,32.5,12.3,0002.2,0008.24,0025.98,0006.16
2022-10-12 19:55:00,,0828.1,5.00,0.00,30.6,29.5,00.0,39.3,32.5,12.4,0002.2,0008.31,0026.64,0006.17
2022-10-12 19:56:00,,0828.2,5.00,0.00,30.6,29.6,00.0,39.4,32.5,12.5,0001.6,0008.32,0027.03,0006.16
2022-10-12 19:57:00,,0828.2,5.00,0.00,30.7,29.6,00.0,39.4,32.6,12.2,0001.2,0008.26,0026.65,0006.15
2022-10-12 19:58:00,,0828.2,5.00,0.00,30.7,29.6,00.0,39.4,32.6,12.2,0001.0,0008.25,0025.91,0006.16
2022-10-12 19:59:00,,0828.2,5.00,0.00,30.7,29.6,00.0,39.4,32.6,13.1,0000.9,0008.25,0027.33,0006.18
